Watertown, NY

7:44 PM EDT on August 19, 2017 (GMT -0400)
Watertown International

Weather History for KART - November, 2011

Change the Weather History Date:

Friday, November 18, 2011

  Actual Average Record
Temperature  
Mean Temperature 37 °F 38 °F  
Max Temperature 43 °F 46 °F 71 °F (1958)
Min Temperature 31 °F 29 °F 12 °F (1972)
Degree Days  
Heating Degree Days 28 27  
Month to date heating degree days 345 441  
Since 1 July heating degree days 939 1237  
Cooling Degree Days 0 0  
Month to date cooling degree days 0 0  
Year to date cooling degree days 513 362  
Moisture  
Dew Point 25 °F    
Average Humidity 60    
Maximum Humidity 75    
Minimum Humidity 44    
Precipitation  
Precipitation 0.00 in 0.13 in 0.77 in (2014)
Month to date precipitation 0.31 2.24  
Year to date precipitation 36.33 31.41  
Sea Level Pressure  
Sea Level Pressure 30.18 in    
Wind  
Wind Speed 11 mph (WSW)    
Max Wind Speed 23 mph    
Max Gust Speed 32 mph    
Visibility 10 miles    
Events      
T = Trace of Precipitation, MM = Missing Value Source: NWS Daily Summary

Daily Weather History Graph

Daily Weather History Graph

Search for Another Location

Airport or City:

Trip Planner

Search our weather history database for the weather conditions in past years. The results will help you decide how hot, cold, wet, or windy it might be!

Date:

Astronomy

Nov. 18, 2011 Rise Set
Actual Time 7:02 AM EST 4:35 PM EST
Civil Twilight 6:31 AM EST 5:06 PM EST
Nautical Twilight 5:56 AM EST 5:41 PM EST
Astronomical Twilight 5:21 AM EST 6:16 PM EST
Moon No Moon Rise 12:34 PM EST (11/18)
Length of Visible Light 10h 35m
Length of Day
9h 32m
Waning Gibbous, 49% of the Moon is Illuminated
Nov 18
Waning Gibbous
Nov 25
New
Dec 2
First Quarter
Dec 10
Full
Dec 17
Last Quarter

Hourly Weather History & Observations

Time (EST) Temp. Windchill Dew Point Humidity Pressure Visibility Wind Dir Wind Speed Gust Speed Precip Events Conditions
12:05 AM 33.8 °F 24.3 °F 26.6 °F 75% 29.98 in 10.0 mi WNW 13.8 mph 19.6 mph N/A   Mostly Cloudy
12:23 AM 33.8 °F 24.3 °F 26.6 °F 75% 29.99 in 10.0 mi West 13.8 mph - N/A   Scattered Clouds
12:56 AM 33.8 °F 26.4 °F 26.6 °F 75% 30.00 in 10.0 mi West 9.2 mph - N/A   Mostly Cloudy
1:56 AM 33.8 °F 24.8 °F 26.6 °F 75% 30.04 in 10.0 mi WNW 12.7 mph 23.0 mph N/A   Partly Cloudy
2:56 AM 34.0 °F 27.2 °F 27.0 °F 75% 30.09 in 10.0 mi WNW 8.1 mph - N/A   Overcast
3:56 AM 35.1 °F 28.6 °F 27.0 °F 72% 30.10 in 10.0 mi West 8.1 mph - N/A   Mostly Cloudy
4:56 AM 34.0 °F 26.0 °F 27.0 °F 75% 30.13 in 10.0 mi WNW 10.4 mph - N/A   Overcast
5:23 AM 33.8 °F 28.6 °F 26.6 °F 75% 30.13 in 10.0 mi WNW 5.8 mph - N/A   Overcast
5:56 AM 34.0 °F 28.8 °F 27.0 °F 75% 30.16 in 10.0 mi WNW 5.8 mph - N/A   Overcast
6:56 AM 33.1 °F 28.7 °F 27.0 °F 78% 30.20 in 10.0 mi WNW 4.6 mph - N/A   Overcast
7:17 AM 30.2 °F 26.7 °F 26.6 °F 86% 30.20 in 10.0 mi West 3.5 mph - N/A   Partly Cloudy
7:56 AM 33.1 °F - 27.0 °F 78% 30.24 in 10.0 mi Calm Calm - N/A   Partly Cloudy
8:56 AM 36.0 °F 32.1 °F 28.9 °F 76% 30.25 in 10.0 mi WNW 4.6 mph - N/A   Clear
9:56 AM 37.9 °F 30.5 °F 28.0 °F 68% 30.26 in 10.0 mi WSW 11.5 mph - N/A   Overcast
10:56 AM 41.0 °F 32.8 °F 24.1 °F 51% 30.26 in 10.0 mi West 16.1 mph 25.3 mph N/A   Partly Cloudy
11:56 AM 39.0 °F 29.3 °F 25.0 °F 57% 30.27 in 10.0 mi West 19.6 mph - N/A   Overcast
12:56 PM 39.9 °F 32.5 °F 25.0 °F 55% 30.26 in 10.0 mi WSW 12.7 mph 26.5 mph N/A   Overcast
1:56 PM 39.9 °F 30.8 °F 27.0 °F 60% 30.26 in 10.0 mi SW 18.4 mph 27.6 mph N/A   Overcast
2:56 PM 39.9 °F 31.1 °F 24.1 °F 53% 30.27 in 10.0 mi SW 17.3 mph 24.2 mph N/A   Overcast
3:56 PM 39.9 °F 31.8 °F 21.0 °F 47% 30.27 in 10.0 mi SW 15.0 mph 25.3 mph N/A   Clear
4:56 PM 37.0 °F 31.6 °F 23.0 °F 57% 30.27 in 10.0 mi South 6.9 mph - N/A   Partly Cloudy
5:56 PM 35.1 °F 30.1 °F 21.0 °F 57% 30.25 in 10.0 mi South 5.8 mph - N/A   Clear
6:56 PM 36.0 °F 31.1 °F 21.9 °F 57% 30.24 in 10.0 mi South 5.8 mph - N/A   Clear
7:56 PM 37.9 °F 30.9 °F 23.0 °F 55% 30.23 in 10.0 mi South 10.4 mph 17.3 mph N/A   Clear
8:56 PM 39.0 °F 32.3 °F 21.0 °F 49% 30.21 in 10.0 mi South 10.4 mph 18.4 mph N/A   Clear
9:56 PM 39.9 °F 31.8 °F 19.9 °F 45% 30.20 in 10.0 mi South 15.0 mph 24.2 mph N/A   Mostly Cloudy
10:56 PM 39.0 °F 32.3 °F 19.9 °F 46% 30.17 in 10.0 mi South 10.4 mph 20.7 mph N/A   Overcast
11:56 PM 39.9 °F 31.1 °F 19.0 °F 43% 30.17 in 10.0 mi South 17.3 mph 24.2 mph N/A   Scattered Clouds